RH
20 16 14 14 16 18 21 30 32 30 21 15 12 10 8 7 6 7 7 8 9 11 25 23 18 34 72 73 85 82 85 62 50 42 34 34 47 42 41 37 36 31 23 20 20
13 8 6 5 5 4 5 5 5 9 21 27 24 18 12 10 10 7 8 8 9 9 14 26 21 28 68 96 99 91 78 62 46 50 43 51 48 43 41 40 37 32 30 31 25
12 7 5 5 5 5 4 4 4 3 3 4 10 23 24 18 12 8 11 10 11 10 7 28 26 38 70 94 99 90 69 65 56 55 53 57 53 49 44 43 41 38 29 38 32
10 8 7 7 6 6 5 4 3 3 3 3 3 3 6 18 19 22 18 13 12 12 10 25 29 58 72 98 99 100 92 84 70 75 56 66 59 53 48 46 43 40 44 45 40
10 9 8 6 4 3 3 2 2 2 2 2 3 4 5 4 5 20 20 20 20 20 15 16 32 53 88 98 95 92 98 91 72 78 83 74 62 56 53 50 48 46 45 46 40
11 8 5 4 3 2 2 2 2 3 3 4 5 5 10 12 11 4 18 22 24 24 29 32 31 36 73 79 87 87 99 97 76 69 86 79 70 65 59 54 51 50 45 47 40
8 4 3 2 3 3 4 5 5 7 9 12 18 41 28 10 17 21 10 11 17 26 38 37 42 63 70 84 85 94 87 88 81 69 81 80 76 68 65 58 54 50 43 43 43
5 3 2 3 4 8 11 15 23 34 40 46 45 79 40 24 32 24 33 11 14 18 18 21 36 56 84 87 100 83 97 100 68 86 94 89 70 72 71 66 56 52 45 50 51
3 3 4 6 12 20 23 26 28 30 34 41 47 53 55 38 31 36 41 33 29 36 35 18 45 82 92 98 99 94 95 87 92 75 87 96 82 65 73 74 67 62 50 48 54
3 5 7 15 28 28 27 24 31 42 58 60 64 77 77 49 87 97 50 77 66 56 72 43 77 99 100 100 98 97 92 87 90 80 80 89 88 72 55 66 65 55 52 46 50
5 7 12 20 32 27 24 34 40 67 74 69 69 74 51 70 96 70 94 98 100 95 100 57 96 98 64 87 92 95 90 84 82 83 82 76 76 69 51 58 59 55 45 43 44
8 11 17 27 35 30 41 48 72 95 68 39 48 50 40 62 69 78 98 97 97 88 100 99 96 44 83 90 98 98 99 83 74 73 79 77 71 74 61 59 55 53 50 49 55
11 14 36 65 44 34 40 48 61 79 76 52 70 77 78 77 70 35 82 88 74 98 100 100 88 99 99 87 95 99 93 82 70 69 74 70 70 66 60 64 68 63 56 57 58
12 14 50 74 41 34 46 57 64 83 93 56 81 90 88 90 76 72 60 95 97 44 92 91 91 92 98 98 100 100 91 85 72 73 80 74 86 57 56 58 66 65 57 58 60
12 16 29 39 30 45 48 57 72 83 100 56 77 74 64 65 91 93 67 88 96 97 63 84 64 98 99 96 100 96 97 92 79 81 74 79 75 64 61 64 58 58 58 53 48
12 17 24 28 37 42 46 60 67 91 89 58 68 50 57 77 98 96 95 83 96 97 78 74 66 74 92 88 98 98 95 99 99 96 98 71 67 57 50 48 50 42 35 42 43
13 19 22 27 40 44 62 60 70 84 63 71 63 58 93 97 94 70 97 100 95 96 98 98 82 75 86 100 100 99 89 98 98 98 93 63 64 56 46 42 39 28 26 26 29
16 23 24 32 42 49 56 50 67 78 90 75 71 71 96 81 90 86 87 89 82 81 94 96 98 81 82 91 90 97 92 86 90 97 84 70 77 59 46 38 33 25 25 27 23
19 25 29 29 37 47 48 62 76 90 97 87 70 85 72 94 97 97 93 85 89 96 96 98 90 86 72 81 67 98 95 71 65 81 76 60 54 40 32 32 27 24 25 25 28
21 23 30 32 43 42 49 68 76 91 95 78 94 91 96 94 90 97 92 90 87 84 91 95 96 90 83 80 89 82 90 96 94 94 89 61 52 43 32 26 26 27 26 26 30
23 24 28 41 49 56 77 77 79 89 100 94 93 97 94 98 87 96 96 95 97 88 78 94 83 99 90 94 82 93 96 79 85 76 79 64 51 41 38 34 24 21 26 30 30
26 29 35 42 55 68 86 98 89 84 86 98 87 84 100 86 82 96 97 96 94 91 99 94 97 98 98 90 84 87 79 76 63 89 62 58 50 30 31 34 32 29 33 33 30
28 31 41 49 53 52 70 81 84 86 88 83 83 87 86 97 95 91 88 92 93 97 97 97 96 97 97 90 86 90 80 77 69 58 58 62 41 44 41 36 29 31 32 31 28
35 38 46 56 67 91 85 72 75 79 92 93 87 94 88 74 83 77 97 92 96 95 96 91 84 89 78 75 78 94 72 81 74 61 60 52 38 42 39 34 30 28 34 34 30
35 50 60 67 87 99 91 93 82 84 81 97 88 97 98 84 79 92 93 94 82 92 86 94 83 80 62 62 65 75 71 73 87 72 66 52 50 42 42 41 38 36 30 33 35
17 36 52 63 81 84 99 86 68 73 84 93 98 96 81 85 88 95 99 91 93 83 90 94 91 74 71 64 64 76 78 65 62 66 70 55 43 42 43 41 42 41 38 30 34
15 18 15 17 48 54 48 43 31 47 59 76 99 94 88 80 70 86 92 97 96 97 93 98 97 86 80 76 72 65 44 47 48 52 50 56 34 40 45 48 45 42 41 37 30
Wind_Speed
25 24 25 26 28 29 28 29 30 30 29 28 29 29 29 29 31 30 24 18 19 19 20 20 23 28 31 36 36 38 34 38 36 31 31 21 17 23 25 26 23 22 23 18 21
26 27 28 29 30 32 33 32 33 31 31 32 31 29 30 33 33 32 26 25 22 21 21 21 20 29 36 37 38 41 44 42 38 31 24 19 16 22 27 25 22 21 22 16 16
28 29 29 32 34 35 35 36 36 36 35 35 35 33 33 34 36 33 31 30 25 24 20 22 21 32 37 40 42 42 48 43 34 34 27 25 17 22 26 25 23 22 22 17 17
30 32 32 35 38 39 38 38 39 38 36 37 38 37 36 35 35 28 27 30 30 27 25 26 28 35 38 42 41 41 45 37 29 24 30 23 19 24 26 23 22 23 19 17 15
32 34 35 37 40 40 40 40 38 38 37 35 36 37 38 42 45 27 16 19 23 24 27 29 32 37 43 39 37 42 41 41 32 27 25 23 23 26 27 27 24 25 26 22 18
36 36 39 40 42 41 39 39 38 36 35 34 36 36 36 49 39 37 37 34 25 22 22 29 35 37 38 40 40 39 35 31 32 35 29 26 24 25 27 28 28 27 29 26 22
38 39 40 40 41 39 38 38 37 33 33 31 32 30 41 50 38 29 42 44 40 34 28 23 24 37 33 34 35 34 19 30 26 38 37 33 32 32 23 28 28 27 26 25 24
40 40 40 39 38 35 34 33 31 28 25 25 27 27 45 42 36 35 34 38 43 40 41 30 24 34 40 27 35 27 33 24 37 32 30 30 42 37 28 25 29 26 27 26 23
41 40 38 36 32 30 32 31 30 27 24 23 25 26 40 30 30 20 33 39 31 31 36 33 30 39 41 39 26 38 29 40 31 30 30 33 36 39 36 32 33 34 32 32 26
39 36 33 30 28 30 31 33 29 25 16 15 17 20 22 23 11 14 35 42 37 32 29 36 38 45 39 41 30 39 43 30 37 36 31 34 35 32 28 34 37 35 35 34 33
35 32 31 29 28 30 33 32 30 19 14 19 21 25 21 20 19 26 18 35 42 36 36 44 43 46 53 44 43 34 31 35 24 27 29 34 34 33 29 28 35 38 36 35 33
31 31 33 31 28 29 28 26 21 24 33 21 19 24 21 28 32 21 24 23 49 49 39 30 46 55 46 43 43 28 29 29 27 22 25 30 36 31 28 32 36 40 41 39 33
31 33 33 31 27 26 24 21 20 20 26 10 12 6 10 14 19 21 24 30 40 46 40 42 39 38 39 45 41 47 33 28 28 26 24 27 34 32 37 33 31 34 39 41 39
32 34 30 29 24 23 20 18 18 17 14 13 11 9 22 19 17 12 24 32 18 51 42 45 41 41 43 44 38 34 42 33 29 22 9 17 7 36 37 35 37 39 40 40 40
31 31 27 25 26 21 17 16 16 15 5 14 13 19 29 27 24 9 11 32 33 31 49 39 45 29 46 53 46 29 42 32 28 19 8 17 9 20 23 40 40 38 39 41 41
28 28 26 23 22 19 18 16 16 4 5 17 17 27 23 19 13 6 12 19 23 11 45 38 30 37 30 31 40 28 22 19 16 20 6 25 21 14 29 38 32 31 33 39 40
26 27 26 24 18 17 16 16 6 1 17 15 33 25 15 22 11 17 6 11 16 4 24 35 32 32 26 25 30 25 29 7 7 7 5 16 19 31 9 25 27 27 27 28 42
25 26 25 20 16 16 17 13 2 9 13 26 30 16 14 27 12 5 11 12 8 9 13 24 17 35 31 32 31 36 31 9 7 5 4 13 12 21 27 28 17 25 29 21 35
24 24 23 18 16 16 16 6 7 14 17 28 23 14 19 22 18 6 11 12 9 10 9 20 13 33 32 31 31 35 31 23 6 5 2 10 11 6 16 15 28 26 31 30 23
21 22 18 17 16 13 12 9 14 13 19 18 14 11 19 27 27 16 5 2 13 14 14 10 11 33 28 32 27 32 35 19 6 5 3 3 7 14 29 30 23 23 24 24 24
20 19 17 14 13 13 12 13 16 14 14 12 16 13 18 23 24 12 5 4 7 6 11 10 12 17 30 21 30 24 33 14 16 3 4 3 6 10 23 20 27 30 31 25 20
19 15 15 13 10 13 12 16 16 18 8 7 12 15 13 23 16 16 11 9 5 4 9 13 3 13 19 17 30 32 29 32 14 6 5 2 2 3 3 5 12 25 28 27 24
17 14 14 12 11 13 11 12 16 19 12 10 11 14 14 16 9 12 17 15 7 4 7 11 4 9 7 9 21 25 29 33 28 19 11 7 5 12 14 13 5 10 21 24 21
18 12 13 12 15 13 15 17 20 14 8 14 8 8 14 15 12 10 17 7 5 5 6 7 11 7 8 9 20 21 24 29 28 19 17 17 13 9 14 12 12 5 11 19 23
17 14 12 11 10 8 14 19 19 21 17 17 4 8 15 15 15 12 17 11 6 4 4 9 8 12 10 11 16 26 28 21 33 19 20 30 27 17 10 6 10 13 6 10 26
15 15 12 10 10 10 7 18 19 18 18 16 16 14 14 16 15 19 15 16 3 4 3 13 6 17 6 12 14 20 29 29 24 24 30 22 29 31 21 20 8 8 13 5 13
13 11 12 13 11 10 12 16 18 19 13 17 18 16 14 12 12 12 13 6 6 7 1 4 13 22 13 8 7 9 27 30 29 29 29 33 38 32 22 17 10 8 5 10 5
Wind_Direction
316 311 307 303 299 297 295 291 288 286 281 276 274 270 268 262 258 257 253 256 250 245 238 226 215 204 193 199 208 203 210 219 221 220 224 220 217 212 216 232 236 237 233 230 219
315 310 305 301 297 295 294 292 290 285 282 277 273 269 266 264 258 253 255 249 248 242 234 233 223 205 196 200 205 205 217 223 219 219 217 194 194 204 210 224 229 237 223 225 221
311 305 303 301 297 295 294 292 289 286 282 277 273 268 264 263 261 255 250 251 251 250 234 225 212 204 201 202 203 213 224 220 222 224 214 224 206 211 224 229 242 249 232 231 226
312 307 304 301 300 298 298 294 290 286 282 277 273 268 262 258 259 260 256 250 248 246 237 217 207 200 206 205 212 221 226 224 210 209 217 224 215 214 217 228 239 235 237 236 228
312 309 306 303 302 300 299 297 294 291 288 282 275 269 262 253 246 243 233 229 239 232 228 221 210 204 208 208 215 226 227 223 212 211 215 209 200 210 215 216 221 226 235 233 230
314 312 309 307 306 305 302 299 297 293 288 284 277 272 262 258 254 239 234 235 227 233 219 215 217 212 215 216 221 227 229 229 216 217 226 219 204 212 214 214 226 227 233 234 231
316 315 312 310 307 305 305 304 300 299 292 284 277 275 260 254 249 238 229 232 227 222 214 214 222 210 213 217 219 217 213 217 211 216 227 229 216 213 213 218 227 231 227 227 225
319 317 314 313 311 314 314 312 314 312 302 290 279 275 268 265 265 235 230 225 226 224 225 220 214 214 215 216 217 205 221 222 213 210 215 220 227 215 211 221 221 227 227 225 222
321 319 318 318 322 323 319 318 319 311 303 293 283 279 279 284 275 255 224 229 219 222 221 213 209 208 212 211 194 205 213 218 222 209 216 220 231 222 218 224 230 236 233 231 226
323 321 322 326 329 323 321 320 322 315 312 302 284 269 268 279 262 199 203 211 208 208 207 204 205 210 219 213 205 192 208 216 217 216 214 225 236 235 223 225 229 231 230 229 229
325 326 327 330 329 326 324 325 328 331 318 302 285 280 293 279 283 243 231 212 199 198 207 203 204 210 215 213 205 209 212 211 216 220 219 227 237 240 230 226 224 226 226 228 229
328 330 327 330 328 328 330 333 333 325 320 329 297 270 277 278 278 254 219 224 207 203 203 204 212 213 212 215 209 204 203 210 209 209 222 235 240 236 228 223 224 225 228 229 228
333 329 330 330 329 330 330 332 331 326 316 16 10 52 4 311 283 264 249 207 213 210 211 210 216 214 210 216 211 219 215 203 203 211 238 242 246 235 233 226 224 224 228 231 232
334 331 334 327 333 333 329 329 325 327 318 358 353 343 340 340 304 289 234 217 215 211 211 221 209 207 204 210 199 199 204 204 196 196 215 206 241 237 230 227 223 223 225 228 229
337 337 341 336 336 340 334 327 328 327 331 347 342 344 329 323 318 292 215 230 230 213 202 213 215 210 212 208 196 205 204 204 206 209 222 218 230 240 222 232 229 226 226 233 231
341 345 344 341 339 340 340 338 331 330 263 334 323 332 332 330 335 238 188 235 235 209 199 212 215 216 212 225 213 209 191 199 199 212 220 219 213 239 227 230 233 235 232 230 232
344 348 345 340 345 343 349 344 331 16 329 332 336 346 356 348 339 221 198 209 237 226 184 194 199 209 204 201 195 181 168 163 191 193 214 210 212 228 230 240 237 235 227 236 223
347 349 343 341 345 343 352 356 348 339 334 331 340 360 355 3 1 220 227 249 276 284 268 177 198 201 203 198 192 200 174 172 190 181 166 170 223 233 238 248 253 231 224 227 224
350 347 343 344 347 346 358 1 347 337 332 335 350 359 359 353 344 346 223 237 244 218 223 198 195 193 200 199 200 193 200 199 105 65 72 206 236 251 205 220 232 232 219 219 214
353 350 350 352 352 353 1 7 347 339 330 336 340 338 341 351 353 15 128 350 243 252 263 278 128 184 183 197 199 202 193 189 191 127 190 273 234 230 246 255 239 219 218 223 223
356 351 356 4 10 18 5 352 350 356 350 332 333 326 344 345 344 358 40 76 188 257 266 268 160 159 190 193 199 192 189 183 195 172 167 147 240 217 233 235 225 227 227 231 228
353 347 353 0 3 12 20 7 2 6 356 338 332 335 336 341 340 9 13 27 18 216 224 245 144 141 181 196 194 200 207 200 190 179 161 142 335 29 60 234 236 232 226 227 223
356 347 348 347 349 1 7 8 1 357 3 355 337 335 331 342 337 345 352 347 344 161 214 196 147 116 168 184 196 184 206 206 211 195 193 156 164 83 73 62 82 211 217 221 220
354 357 347 347 352 3 5 359 353 4 18 331 327 335 334 349 0 335 360 351 358 322 210 181 200 173 181 191 189 194 191 201 201 196 195 214 161 140 67 58 52 75 217 219 214
1 357 357 347 17 15 359 353 354 352 357 8 333 314 335 333 342 346 345 14 352 327 244 210 211 209 199 228 207 206 196 194 208 200 202 221 231 225 245 26 27 27 34 214 215
356 5 360 359 346 350 347 341 349 343 337 338 342 325 310 310 319 324 345 340 49 21 176 205 193 186 138 163 181 218 215 218 221 216 221 219 228 241 248 261 259 6 15 45 212
351 347 5 6 357 358 350 346 353 341 342 336 324 318 317 299 291 306 317 325 14 12 340 203 178 179 178 160 170 220 210 215 223 227 229 233 235 236 239 245 254 276 356 34 62